Regional Weather Roundup
Issued by NWS

Home | Current Version | Previous Version | Graphics & Text | Print | Product List | Glossary On
Versions: 1 2 3 4 5 6 7 8 9 10 11 12 13 14 15 16 17 18 19 20 21 22 23 24 25 26 27 28 29 30 31 32 33 34 35 36 37 38 39 40 41 42 43 44 45 46 47 48 49 50
000
ASUS43 KLSX 280807
RWRMO

WEATHER SUMMARY FOR MISSOURI
NATIONAL WEATHER SERVICE SPRINGFIELD MO
300 AM CDT MON JUL 28 2014

NOTE: "FAIR" INDICATES FEW OR NO CLOUDS BELOW 12,000 FEET WITH NO
       SIGNIFICANT WEATHER AND/OR OBSTRUCTIONS TO VISIBILITY.
       CURRENT SKY AND/OR WEATHER CONDITIONS ARE NOT AVAILABLE FOR
       CHILLICOTHE AND FARMINGTON.

MOZ001>031-035>038-043-044-053-054-280900-
...NORTHERN AND WESTERN MISSOURI...

CITY           SKY/WX    TMP DP  RH WIND       PRES   REMARKS
KANSAS CTY INT PTCLDY    62  57  83 N6        30.15S
KANSAS C DTWN  CLEAR     67  58  72 N5        30.14R
LEE`S SUMMIT   CLEAR     65  57  75 N6        30.14S
ST JOSEPH      CLEAR     59  57  93 N5        30.16S
CHILLICOTHE      N/A     65  56  72 CALM      30.13S
KIRKSVILLE     CLEAR     62  57  83 NW9       30.09S

$$
MOZ066>068-077>081-088>096-101>105-280900-
...SOUTHWEST MISSOURI...

CITY           SKY/WX    TMP DP  RH WIND       PRES   REMARKS
SPRINGFIELD    CLEAR     64  57  78 N9        30.11S
JOPLIN         CLEAR     67  59  75 N8        30.13S

$$
MOZ032>034-039>042-045>050-055>058-069>072-280900-
...CENTRAL MISSOURI...

CITY           SKY/WX    TMP DP  RH WIND       PRES   REMARKS
COLUMBIA       CLEAR     65  57  75 NW8       30.08S
JEFFERSON CITY CLEAR     66  57  72 VRB3      30.07S
ROLLA          CLEAR     65  56  72 NW8       30.06S
SEDALIA        CLEAR     64  57  78 NW8       30.11S
WHITEMAN AFB   CLEAR     64  49  58 N8        30.11S
OSAGE BEACH    CLEAR     66  55  68 N5        30.09S

$$
MOZ051-052-059>065-280900-
...EAST CENTRAL MISSOURI...

CITY           SKY/WX    TMP DP  RH WIND       PRES   REMARKS
ST LOUIS INTL  CLEAR     69  58  67 NW7       30.01S
SPIRIT OF STL  CLEAR     68  57  68 NW8       30.01S
ST CHARLES     CLEAR     69  58  67 NW12G21   29.99F

$$
MOZ072>076-082>087-097>100-106>115-280900-
...SOUTH CENTRAL AND SOUTHEAST MISSOURI...

CITY           SKY/WX    TMP DP  RH WIND       PRES   REMARKS
CAPE GIRARDEAU CLEAR     69  60  73 N5        29.99R
FARMINGTON     CLEAR     66  57  72 NW6       30.04S
POPLAR BLUFF   CLEAR     66  60  81 CALM      29.99S
WEST PLAINS    CLEAR     68  57  68 N5        30.08S

$$



USA.gov is the U.S. government's official web portal to all federal, state and local government web resources and services.